Weather History for KGEV - April, 2013

Change the Weather History Date:

Thursday, April 4, 2013

  Actual Average Record
Temperature  
Mean Temperature 34 °F -  
Max Temperature 39 °F 61 °F 78 °F (1978)
Min Temperature 30 °F 37 °F 21 °F (1987)
Degree Days  
Heating Degree Days 30    
Moisture  
Dew Point 21 °F    
Average Humidity 68    
Maximum Humidity 98    
Minimum Humidity 24    
Precipitation  
Precipitation 0.37 in - - ()
Sea Level Pressure  
Sea Level Pressure 30.14 in    
Wind  
Wind Speed 1 mph (East)    
Max Wind Speed 6 mph    
Max Gust Speed -    
Visibility 6 miles    
Events Fog , Rain , Snow    
Averages and records for this station are not official NWS values.
T = Trace of Precipitation, MM = Missing Value Source: NWS Daily Summary

Daily Weather History Graph

Daily Weather History Graph

Search for Another Location

Airport or City:

Trip Planner

Search our weather history database for the weather conditions in past years. The results will help you decide how hot, cold, wet, or windy it might be!

Date:

Astronomy

Apr. 04, 2013 Rise Set
Actual Time 7:07 AM EDT 7:50 PM EDT
Civil Twilight 6:41 AM EDT 8:16 PM EDT
Nautical Twilight 6:10 AM EDT 8:47 PM EDT
Astronomical Twilight 5:38 AM EDT 9:19 PM EDT
Moon 3:23 AM EDT (4/4) 2:16 PM EDT (4/4)
Length of Visible Light 13h 35m
Length of Day
12h 43m
Waning Crescent, 34% of the Moon is Illuminated
Apr 4
Waning Crescent
Apr 10
New
Apr 18
First Quarter
Apr 25
Full
May 2
Last Quarter

Hourly Weather History & Observations

Time (EDT) Temp. Windchill Dew Point Humidity Pressure Visibility Wind Dir Wind Speed Gust Speed Precip Events Conditions
12:15 AM 38.7 °F 36.3 °F 6.8 °F 27% 30.24 in 10.0 mi North 3.5 mph - N/A   Clear
12:35 AM 39.2 °F - 5.2 °F 24% 30.24 in 10.0 mi Calm Calm - N/A   Clear
1:15 AM 37.9 °F 35.5 °F 5.7 °F 26% 30.24 in 10.0 mi NNE 3.5 mph - N/A   Clear
1:35 AM 36.7 °F - 6.1 °F 28% 30.23 in 10.0 mi Calm Calm - N/A   Clear
1:55 AM 36.5 °F - 6.6 °F 29% 30.23 in 10.0 mi Calm Calm - N/A   Clear
2:15 AM 36.5 °F - 5.9 °F 28% 30.23 in 10.0 mi Calm Calm - N/A   Clear
2:35 AM 36.5 °F - 5.9 °F 28% 30.23 in 10.0 mi Calm Calm - N/A   Clear
2:55 AM 36.5 °F - 5.9 °F 28% 30.22 in 10.0 mi Calm Calm - N/A   Clear
3:15 AM 33.6 °F - 8.4 °F 35% 30.22 in 10.0 mi Calm Calm - N/A   Clear
3:35 AM 32.5 °F - 14.5 °F 48% 30.23 in 10.0 mi Calm Calm - N/A   Clear
4:15 AM 34.7 °F - 10.2 °F 36% 30.22 in 10.0 mi Calm Calm - N/A   Clear
4:35 AM 34.9 °F - 9.1 °F 34% 30.21 in 10.0 mi Calm Calm - N/A   Clear
4:55 AM 34.7 °F - 8.2 °F 33% 30.21 in 10.0 mi Calm Calm - N/A   Clear
5:15 AM 33.3 °F - 10.0 °F 38% 30.21 in 10.0 mi Calm Calm - N/A   Clear
5:35 AM 32.7 °F 29.6 °F 11.7 °F 42% 30.21 in 10.0 mi SSE 3.5 mph - N/A   Clear
5:55 AM 32.0 °F - 14.2 °F 48% 30.21 in 10.0 mi Calm Calm - N/A   Clear
6:15 AM 32.0 °F - 14.2 °F 48% 30.22 in 10.0 mi Calm Calm - N/A   Clear
6:35 AM 32.0 °F 28.7 °F 13.1 °F 46% 30.23 in 10.0 mi South 3.5 mph - N/A   Clear
6:55 AM 32.0 °F 28.7 °F 10.9 °F 42% 30.23 in 10.0 mi SSE 3.5 mph - N/A   Clear
7:15 AM 32.0 °F 28.7 °F 11.8 °F 43% 30.24 in 10.0 mi South 3.5 mph - N/A   Scattered Clouds
7:35 AM 32.0 °F - 9.7 °F 39% 30.24 in 10.0 mi Calm Calm - N/A   Mostly Cloudy
7:55 AM 32.0 °F - 9.1 °F 38% 30.24 in 10.0 mi Calm Calm - N/A   Mostly Cloudy
8:15 AM 32.2 °F - 9.3 °F 39% 30.24 in 10.0 mi Calm Calm - N/A   Scattered Clouds
8:35 AM 32.4 °F - 9.9 °F 39% 30.24 in 10.0 mi Calm Calm - N/A   Mostly Cloudy
8:55 AM 32.5 °F - 10.6 °F 40% 30.23 in 10.0 mi Calm Calm - N/A   Overcast
9:15 AM 32.9 °F - 11.5 °F 41% 30.23 in 10.0 mi Calm Calm - N/A   Overcast
9:35 AM 33.6 °F 30.6 °F 13.6 °F 44% 30.22 in 10.0 mi ESE 3.5 mph - N/A   Overcast
9:55 AM 33.3 °F 28.9 °F 14.4 °F 46% 30.21 in 10.0 mi SE 4.6 mph - N/A   Drizzle
10:15 AM 33.4 °F 30.4 °F 16.7 °F 50% 30.21 in 10.0 mi South 3.5 mph - N/A Rain Light Rain
10:35 AM 32.9 °F 29.8 °F 19.2 °F 57% 30.20 in 10.0 mi South 3.5 mph - N/A Rain Light Rain
10:55 AM 32.7 °F 28.3 °F 20.8 °F 62% 30.20 in 10.0 mi SE 4.6 mph - N/A Rain Light Rain
11:15 AM 32.4 °F - 22.8 °F 68% 30.20 in 10.0 mi Calm Calm - N/A   Overcast
11:35 AM 32.0 °F - 24.4 °F 74% 30.18 in 7.0 mi Calm Calm - N/A   Overcast
11:55 AM 31.8 °F - 25.3 °F 77% 30.18 in 7.0 mi Calm Calm - N/A   Overcast
12:15 PM 31.5 °F - 26.1 °F 80% 30.19 in 4.0 mi Calm Calm - N/A   Overcast
12:35 PM 30.2 °F - 25.7 °F 83% 30.17 in 2.5 mi Calm Calm - N/A   Overcast
12:55 PM 30.2 °F - 27.0 °F 88% 30.16 in 1.8 mi Calm Calm - 0.03 in Snow Light Snow
1:15 PM 30.4 °F - 28.0 °F 91% 30.18 in 1.5 mi Calm Calm - 0.02 in Snow Light Snow
1:35 PM 30.0 °F - 27.9 °F 92% 30.16 in 1.8 mi Calm Calm - 0.04 in Snow Light Snow
1:55 PM 30.0 °F - 27.9 °F 92% 30.14 in 1.8 mi Calm Calm - 0.07 in Snow Light Snow
2:15 PM 30.2 °F - 28.4 °F 93% 30.12 in 1.8 mi Calm Calm - 0.02 in   Overcast
2:35 PM 30.2 °F - 28.4 °F 93% 30.14 in 1.8 mi Calm Calm - 0.06 in Snow Light Snow
2:55 PM 30.4 °F - 28.6 °F 93% 30.13 in 2.5 mi Calm Calm - 0.07 in Snow Light Snow
3:15 PM 30.4 °F - 28.6 °F 93% 30.12 in 0.8 mi Calm Calm - 0.04 in Snow Light Snow
3:35 PM 30.7 °F 27.3 °F 29.1 °F 94% 30.11 in 0.5 mi SE 3.5 mph - 0.06 in Snow Snow
3:55 PM 30.9 °F - 29.3 °F 94% 30.11 in 0.8 mi Calm Calm - 0.07 in Snow Light Snow
4:15 PM 31.1 °F - 29.8 °F 95% 30.11 in 0.8 mi Calm Calm - N/A Snow Light Snow
4:35 PM 31.1 °F - 29.5 °F 94% 30.09 in 1.0 mi Calm Calm - 0.01 in Snow Light Snow
4:55 PM 30.9 °F 27.5 °F 29.7 °F 95% 30.06 in 1.0 mi NE 3.5 mph - 0.02 in Snow Light Snow
5:15 PM 30.9 °F 26.2 °F 29.7 °F 95% 30.05 in 1.5 mi North 4.6 mph - N/A Snow Light Snow
5:35 PM 30.9 °F 25.2 °F 29.7 °F 95% 30.04 in 1.2 mi NNE 5.8 mph - 0.06 in Snow Light Snow
6:15 PM 30.9 °F 26.2 °F 29.3 °F 94% 30.03 in 4.0 mi North 4.6 mph - N/A   Overcast
6:35 PM 30.6 °F 25.8 °F 29.1 °F 94% 30.02 in 4.0 mi North 4.6 mph - N/A   Overcast
7:15 PM 31.1 °F - 29.8 °F 95% 30.01 in 1.8 mi Calm Calm - 0.01 in   Overcast
7:35 PM 31.5 °F 28.1 °F 30.2 °F 95% 30.00 in 1.5 mi North 3.5 mph - 0.01 in   Overcast
7:55 PM 31.8 °F - 30.6 °F 95% 30.00 in 1.8 mi Calm Calm - 0.03 in   Overcast
8:15 PM 32.0 °F - 30.7 °F 95% 29.99 in 4.0 mi Calm Calm - 0.01 in   Overcast
8:35 PM 32.0 °F - 30.7 °F 95% 29.98 in 3.0 mi Calm Calm - 0.01 in Snow Light Snow
8:55 PM 32.0 °F - 31.1 °F 96% 29.98 in 2.0 mi Calm Calm - 0.01 in   Overcast
9:15 PM 32.0 °F - 31.1 °F 96% 29.98 in 1.5 mi Calm Calm - N/A   Overcast
9:35 PM 32.0 °F - 31.1 °F 96% 29.97 in 2.5 mi Calm Calm - N/A Snow Light Snow
9:55 PM 32.0 °F - 31.3 °F 97% 29.97 in 0.5 mi Calm Calm - N/A   Overcast
10:15 PM 32.2 °F - 31.6 °F 98% 29.97 in 0.8 mi Calm Calm - 0.01 in   Overcast
10:35 PM 32.0 °F - 31.1 °F 96% 29.96 in 0.2 mi Calm Calm - 0.01 in   Overcast
10:55 PM 32.0 °F 28.7 °F 31.1 °F 96% 29.96 in 0.2 mi North 3.5 mph - 0.01 in Fog Fog
11:15 PM 32.0 °F - 31.1 °F 96% 29.95 in 0.2 mi Calm Calm - N/A Fog Fog
11:35 PM 32.0 °F - 31.1 °F 96% 29.94 in 0.5 mi Calm Calm - N/A Fog Fog
11:55 PM 32.0 °F - 31.1 °F 96% 29.93 in 0.8 mi Calm Calm - N/A   Overcast